Regional Weather Roundup
Issued by NWS

Home | Current Version | Previous Version | Text Only | Print | Product List | Glossary On
Versions: 1 2 3 4 5 6 7 8 9 10 11 12 13 14 15 16 17 18 19 20 21 22 23 24 25 26 27 28 29 30 31 32 33 34 35 36 37 38 39 40 41 42 43 44 45 46 47 48 49 50
000
ASUS43 KMPX 302301
RWRMN
WEATHER ROUNDUP FOR MINNESOTA
NATIONAL WEATHER SERVICE TWIN CITIES/CHANHASSEN MN
600 PM CDT SUN AUG 30 2015


NOTE: "FAIR" INDICATES FEW OR NO CLOUDS BELOW 12,000 FEET WITH NO
SIGNIFICANT WEATHER AND/OR OBSTRUCTIONS TO VISIBILITY. N/A MEANS
CURRENT SKY AND/OR WEATHER CONDITIONS ARE NOT AVAILABLE.

MNZ060>063-068>070-310000-
   Twin Cities Metro

CITY           SKY/WX    TMP DP  RH WIND       PRES   REMARKS
TWIN CITIES    MOSUNNY   80  64  58 S13       29.92F
ST PAUL        SUNNY     78  67  68 S10       29.92F
CRYSTAL        SUNNY     81  64  56 S12       29.90F
LAKEVILLE      SUNNY     75  66  73 S10G17    29.94F
EDEN PRAIRIE   SUNNY     79  66  64 S14       29.92S
SOUTH ST PAUL  SUNNY     79  65  62 S9        29.93S
LAKE ELMO      FAIR      77  68  73 S10       29.94S
$$
MNZ001>005-007-008-013>017-022>024-027-028-310000-
   Northwest Minnesota

CITY           SKY/WX    TMP DP  RH WIND       PRES   REMARKS
BEMIDJI        MOSUNNY   81  69  66 S9        29.80S
HALLOCK        MOSUNNY   84  70  61 S15G24    29.65F
ROSEAU         MOSUNNY   84  73  70 S10       29.71S HX  91
WARROAD        MOSUNNY   84  73  70 S7        29.73S HX  91
THIEF RVR FALL MOSUNNY  N/A N/A N/A S15G21    29.72S
CROOKSTON      MOSUNNY   84  66  54 S22       29.71F
FOSSTON        SUNNY     84  66  54 S8        29.77S
DETROIT LAKES  SUNNY     81  68  65 S12       29.82S
MOORHEAD       MOSUNNY   84  68  58 S17G24    29.74F
PARK RAPIDS    SUNNY     82  67  60 S14       29.83S
MAHNOMEN       FAIR      81  67  61 S8G16     29.77S
$$
MNZ006-009>011-018-025>026-310000-
   North Central Minnesota

CITY           SKY/WX    TMP DP  RH WIND       PRES   REMARKS
BAUDETTE       MOSUNNY   82  68  62 S9        29.75S
FLAG ISLAND    SUNNY     75  66  73 SE12      29.72S
INTL FALLS     MOSUNNY   81  70  69 S5        29.78F
WASKISH        MOSUNNY   81  70  69 SE5       29.77F
BIG FORK       MOSUNNY   81  70  69 S7        29.82F
LONGVILLE      MOSUNNY   79  68  69 S7        29.85S
GRAND RAPIDS     N/A     75  64  69 S10       29.86S
CRANE LAKE     PTSUNNY   81  70  69 S3        29.83S
ORR            MOSUNNY   81  64  57 CALM      29.81S
COOK           PTSUNNY   81  70  69 S5        29.84S
WALKER         FAIR      80  68  67 S7        29.83S
$$
MNZ012-019>021-037-310000-
   Northeast Minnesota

CITY           SKY/WX    TMP DP  RH WIND       PRES   REMARKS
DULUTH         SUNNY     78  66  66 S12       29.88F
ELY            MOSUNNY   79  66  65 SW5       29.86S
HIBBING        MOSUNNY   82  67  60 VRB6      29.85S
EVELETH        MOSUNNY   81  68  65 S9        29.87S
DULUTH HARBOR  SUNNY     81  66  61 SW13      29.85F
TWO HARBORS    MOSUNNY   82  72  69 SW8       29.85S
SILVER BAY     MOSUNNY   79  68  69 S5        29.85S
GRAND MARAIS     N/A     62  56  80 W5        29.83F
G MARAIS ARPRT MOSUNNY   72  64  78 S3        29.90S
$$
MNZ029>031-032-039>041-046>048-054>057-064-310000-
   West Central Minnesota

CITY           SKY/WX    TMP DP  RH WIND       PRES   REMARKS
FERGUS FALLS   MOSUNNY   81  68  65 S16       29.79S
WHEATON        MOSUNNY   79  68  69 SE15G24   29.80S
MORRIS         SUNNY     81  70  69 S15       29.82F
ALEXANDRIA     SUNNY     79  68  69 S10       29.87F
ELBOW LAKE     FAIR      78  69  74 SE13G21   29.82S
WADENA         SUNNY     79  68  69 S14       29.84F
GLENWOOD       SUNNY     81  68  65 S12G21    29.87F
APPLETON       SUNNY     81  68  65 S9        29.83F
BENSON         SUNNY     81  68  65 S8        29.85S
ORTONVILLE     SUNNY     82  66  57 S12       29.82S
MADISON        SUNNY     81  66  61 S10       29.83F
WILLMAR        FAIR      81  66  61 S7        29.89F
$$
MNZ033>034-036-042>043-049>051-058-059-310000-
   Central Minnesota

CITY           SKY/WX    TMP DP  RH WIND       PRES   REMARKS
ST CLOUD       MOSUNNY   79  66  64 S13       29.89S
SAUK CENTRE    FAIR      79  69  70 S9G17     29.88F
PAYNESVILLE    SUNNY     79  66  64 SE7       29.89F
AITKIN         MOSUNNY   79  68  69 S7        29.86F
PINE RIVER     SUNNY     79  68  69 S9        29.88S
BRAINERD       SUNNY     78  67  68 S13       29.87F
STAPLES        SUNNY     79  66  65 S13G18    29.86S
LONG PRAIRIE   FAIR      77  68  73 SE9       29.88S
LITTLE FALLS   MOSUNNY   79  64  61 S9        29.88F
LITCHFIELD     SUNNY     81  70  69 S7        29.90F
BUFFALO        SUNNY     78  65  63 S8        29.92S
MAPLE LAKE     SUNNY     78  69  73 S6        29.91F
$$
MNZ037-044-045-052-053-310000-
   East Central Minnesota

CITY           SKY/WX    TMP DP  RH WIND       PRES   REMARKS
PRINCETON      SUNNY     81  66  61 S9        29.90F
MORA           SUNNY     77  63  61 S8        29.91F
CAMBRIDGE      SUNNY     82  64  54 S8        29.89S
RUSH CITY      SUNNY     77  66  68 S8        29.91S
MOOSE LAKE     SUNNY     77  63  61 S7        29.87S
HINCKLEY       FAIR      79  68  69 S8        29.90F
CLOQUET        SUNNY     79  64  61 S6        29.89S
MCGREGOR       SUNNY     79  68  69 S8        29.88S
$$
MNZ071>073-080-081-089-090-097-098-310000-
   Southwest Minnesota

CITY           SKY/WX    TMP DP  RH WIND       PRES   REMARKS
MONTEVIDEO     SUNNY     82  68  61 S12G17    29.87F
GRANITE FALLS  SUNNY     79  68  69 SE8       29.89S
CANBY          SUNNY     80  64  59 S9G17     29.86F
MARSHALL       SUNNY     79  61  53 S16G22    29.90S
REDWOOD FALLS  SUNNY     79  64  60 S10       29.89F
OLIVIA         SUNNY     77  63  61 S9        29.89S
PIPESTONE      SUNNY     73  63  68 S13       29.92F
WINDOM         SUNNY     77  66  69 S10G16    29.93F
WORTHINGTON    SUNNY     73  64  73 S13       29.94F
JACKSON        SUNNY     75  68  78 S12G17    29.96F
TRACY          SUNNY     78  67  68 S14       29.90F
SLAYTON        SUNNY     75  64  68 S8G17     29.94S
$$
MNZ065>067-074>077-082>085-091>093-310000-
   South Central Minnesota

CITY           SKY/WX    TMP DP  RH WIND       PRES   REMARKS
MANKATO        SUNNY     75  66  73 S12       29.94F
NEW ULM        SUNNY     79  66  65 S14       29.92F
ST JAMES       SUNNY     77  70  78 S14       29.95S
FAIRMONT       SUNNY     73  63  68 S12       29.95F
GLENCOE        SUNNY     79  69  72 S9        29.92S
FARIBAULT      SUNNY     75  66  73 S8G16     29.96S
OWATONNA       SUNNY     75  64  69 S10G16    29.97S
WASECA         SUNNY     73  64  73 S12       29.97F
ALBERT LEA     SUNNY     73  66  78 S10       29.98F
$$
MNZ078>079-086>088-094>096-310000-
   Southeast Minnesota

CITY           SKY/WX    TMP DP  RH WIND       PRES   REMARKS
ROCHESTER      MOSUNNY   71  64  78 S12       30.00S
RED WING       SUNNY     79  64  61 S7        29.94F
STANTON        SUNNY     77  66  68 S7        29.94S
DODGE CENTER   SUNNY     72  64  78 S9        29.99S
WINONA         SUNNY     73  63  68 S3        29.98F
PRESTON        PTSUNNY   71  63  76 S12       30.01F
$$
ABBREVIATIONS USED IN REMARKS
   TC - TEMPERATURES IN CELSIUS
  WCI - WIND CHILL INDEX
   HX - HEAT INDEX
  VSB - VISIBILITY
$$


USA.gov is the U.S. government's official web portal to all federal, state and local government web resources and services.